Vertical_Velocity
-3 6 -0 -12 -25 -11 8 0 3 5 -4 -8 4 1 -4 0 6 0 4 1 -2 4 -4 3 1 -2 -0 0 -0 -0 -2 -0 1 1 -4 4 -2 0 0 -2 -0 -3 -1
-1 -3 -3 -5 4 2 -2 -5 1 0 -10 -15 4 5 2 -2 1 2 3 5 -5 2 0 -0 3 -1 -4 1 0 -2 0 2 2 -5 -2 0 -4 -1 1 -0 0 -2 3
-1 10 1 -5 -8 1 -1 -1 -4 -4 -5 -10 7 4 -2 4 3 6 5 -1 1 -3 4 3 0 -1 -1 -2 1 -2 1 -1 -1 -2 -1 -2 1 -3 -1 -1 4 2 -1
3 0 0 4 1 6 -6 -5 -0 -19 -6 -4 -2 -2 -0 0 10 4 5 0 -1 1 -1 5 2 -1 2 -2 -3 0 0 -1 -1 -2 0 3 -0 1 -1 -2 2 2 0
2 16 3 -8 7 -7 4 4 -4 10 -21 -4 -11 -6 1 8 4 14 1 3 -1 -0 -1 4 -0 -1 1 -2 -0 -1 -3 -2 -1 -4 -3 -3 0 -4 2 -5 -3 -2 -2
2 14 9 22 -9 4 6 2 -2 19 -14 0 -11 -5 -2 4 7 10 -2 4 2 3 2 3 -4 1 -1 -0 -0 -1 4 -1 -2 2 -1 -4 0 -2 -3 0 -1 -2 -2
17 3 3 6 1 6 8 4 1 11 4 7 12 -17 2 -0 11 3 1 4 -0 5 0 0 3 -5 -3 -3 1 -1 -1 -4 2 -1 2 -0 -1 -1 -3 -2 -3 -4 -3
9 8 4 12 3 4 3 2 -1 5 3 13 8 -5 -3 1 6 6 5 1 6 3 0 2 1 -2 0 3 2 -2 -4 -4 1 3 -2 2 4 -1 1 -0 -1 -0 0
-5 0 5 11 3 0 -4 7 2 1 10 12 -31 -3 -5 3 6 9 4 3 -1 4 5 -1 -1 -1 0 4 -1 -0 1 0 1 2 1 2 1 0 -0 -3 -0 -3 0
3 4 8 6 -2 7 3 2 -5 -17 9 -5 -3 1 -7 3 7 12 4 0 1 4 4 4 -2 0 -3 -4 1 -2 -1 -4 2 2 4 3 0 4 -3 -2 -0 1 -1
4 20 15 11 24 5 8 15 21 -16 -15 2 -8 8 -1 0 4 8 1 1 4 3 1 -2 1 1 -0 2 -2 0 4 -0 -0 -5 2 0 -0 -0 -1 3 -3 -1 -2
1 8 1 44 36 15 13 -6 5 -5 3 -7 -10 3 10 0 6 7 2 -0 1 5 7 0 -1 -3 -0 -1 -2 3 5 -0 -3 -2 -2 -1 -3 -2 0 0 -3 -2 -1
-20 21 24 18 27 39 -4 7 -1 -6 0 18 -9 10 9 -4 1 3 1 -3 1 1 5 7 -6 1 -2 -3 1 1 2 4 -4 1 -1 -1 -3 -4 -1 -3 -0 2 2
5 7 3 -13 -16 -9 -3 15 4 2 -5 10 5 3 3 4 5 8 -1 0 -4 -2 4 1 -2 1 -1 -3 -3 3 5 4 1 4 -2 -0 -1 -0 -3 -5 -1 -1 -1
4 10 10 -13 5 5 -6 0 -20 7 4 1 -3 2 10 3 8 2 2 6 -3 0 1 -4 -1 -0 -0 -3 -1 -3 -1 5 2 6 -1 -2 -2 -0 -4 -2 2 -2 -4
2 6 1 13 5 -4 1 4 3 -6 9 6 -6 2 2 13 7 -3 1 2 7 7 -2 -6 -2 -2 -4 3 3 -0 -1 0 5 3 -1 -0 2 1 -1 2 1 -1 2
3 -0 -0 -7 4 1 3 4 3 4 2 7 -1 -3 13 1 4 7 4 -11 7 -0 2 0 2 2 -0 0 1 4 -1 -2 2 0 0 -0 -6 -5 -5 -3 0 -1 -3
-9 -5 4 1 0 3 8 8 5 -8 1 4 6 -2 1 -1 8 6 16 -16 -0 3 7 -2 -2 -4 3 2 -1 1 -5 -4 1 -2 -1 -1 1 0 -0 -2 -3 -2 -2
-4 1 13 -4 0 8 15 -1 12 2 5 1 7 -3 -6 1 2 7 2 1 -1 1 1 -1 3 1 3 2 2 -4 -2 -1 2 2 0 1 2 1 2 0 1 -5 -2
2 13 7 -1 -1 -3 -4 13 2 -2 -8 10 3 2 7 3 1 6 3 1 -4 7 -0 5 -1 2 -0 -0 -1 -2 -1 -2 -0 -1 -1 -3 -2 -2 -2 -3 -1 -1 -1
-10 -5 -9 3 -7 3 -12 4 -0 2 4 4 5 8 7 4 -2 -2 -1 -9 1 3 4 -1 -2 -1 4 0 0 0 -4 -2 -1 2 -1 2 4 4 3 -2 -2 0 -0
-4 -2 -3 2 6 -8 4 -7 6 -2 -8 -3 1 3 -1 0 -8 -19 0 -4 -4 -9 14 -12 -2 7 -0 -2 -1 -2 -2 1 -1 -1 -1 2 3 1 -0 2 -1 -0 1
3 2 0 -0 -3 1 -10 7 -3 -0 3 5 -1 -5 -4 -2 15 9 -0 21 1 -1 0 4 6 3 4 0 0 0 -5 -2 -1 3 1 -1 1 -2 -1 -4 -3 1 1
1 -1 -1 -8 2 0 -0 -6 1 2 -1 -1 -1 0 -3 -10 -4 -6 -3 -0 1 3 -0 -1 3 -5 -3 -1 -3 2 1 -3 -3 -5 3 5 3 5 1 -6 -2 2 -0
-1 2 2 -1 3 -1 -4 3 1 -3 -2 2 -0 2 3 -0 1 -1 -4 -0 2 -2 8 0 -3 0 2 0 -2 -1 -1 -0 2 -6 -11 -2 5 4 1 -0 -2 -1 -1
-5 -2 -3 -3 -5 2 3 2 -3 9 2 -4 -3 -7 -4 -8 2 -7 0 -0 -3 -2 6 -1 5 5 11 7 6 1 -11 -12 -4 -6 4 -1 3 2 -2 4 3 0 -0
Height
3118 3121 3124 3125 3128 3128 3132 3135 3137 3139 3138 3146 3150 3152 3155 3156 3155 3155 3156 3157 3158 3159 3160 3161 3162 3162 3163 3164 3165 3166 3167 3167 3167 3168 3170 3170 3170 3170 3171 3171 3171 3171 3171
3116 3118 3121 3123 3123 3125 3130 3133 3134 3135 3138 3146 3149 3151 3153 3154 3155 3156 3156 3157 3159 3161 3162 3162 3162 3162 3164 3165 3166 3168 3168 3168 3169 3170 3172 3172 3172 3172 3172 3171 3172 3172 3173
3112 3113 3116 3118 3121 3124 3127 3130 3130 3132 3137 3142 3147 3149 3152 3154 3154 3154 3155 3156 3159 3161 3163 3162 3162 3164 3164 3166 3168 3169 3169 3170 3170 3171 3172 3172 3173 3173 3173 3173 3173 3173 3174
3111 3112 3114 3118 3120 3121 3124 3127 3129 3129 3136 3141 3144 3147 3150 3151 3152 3154 3155 3157 3159 3160 3162 3162 3163 3164 3165 3166 3168 3169 3170 3171 3172 3172 3173 3173 3173 3174 3174 3174 3175 3175 3176
3111 3111 3114 3115 3117 3119 3121 3125 3129 3131 3135 3140 3141 3145 3147 3149 3152 3154 3155 3156 3160 3161 3162 3162 3163 3165 3165 3167 3168 3169 3170 3172 3173 3173 3173 3174 3175 3176 3176 3176 3176 3176 3176
3110 3111 3110 3113 3115 3118 3119 3124 3125 3128 3133 3137 3139 3143 3145 3148 3151 3153 3154 3157 3160 3161 3161 3162 3163 3165 3167 3169 3169 3171 3172 3173 3174 3174 3174 3175 3175 3176 3177 3177 3176 3176 3176
3103 3105 3106 3107 3110 3114 3116 3117 3119 3124 3125 3131 3136 3139 3144 3147 3151 3152 3154 3158 3161 3161 3162 3163 3164 3167 3169 3169 3170 3171 3172 3174 3175 3175 3176 3176 3176 3177 3177 3177 3177 3177 3177
3101 3100 3102 3103 3104 3108 3111 3112 3112 3115 3118 3127 3133 3139 3142 3146 3149 3151 3154 3157 3161 3162 3162 3165 3166 3167 3168 3169 3171 3171 3173 3175 3176 3176 3176 3176 3176 3177 3177 3177 3177 3177 3177
3097 3097 3098 3097 3097 3099 3102 3106 3109 3113 3112 3125 3129 3137 3140 3144 3148 3152 3153 3157 3161 3162 3163 3164 3165 3166 3168 3170 3171 3172 3174 3176 3177 3178 3177 3177 3177 3177 3177 3177 3177 3177 3177
3088 3091 3093 3089 3092 3094 3097 3103 3104 3109 3113 3121 3127 3134 3140 3145 3148 3151 3151 3156 3159 3161 3163 3163 3164 3166 3168 3169 3171 3173 3174 3176 3176 3177 3177 3177 3177 3177 3177 3177 3177 3177 3177
3083 3085 3084 3085 3088 3089 3092 3098 3101 3106 3109 3117 3126 3133 3138 3143 3146 3148 3150 3154 3158 3161 3163 3163 3165 3167 3168 3170 3172 3174 3174 3175 3175 3176 3178 3177 3178 3178 3178 3177 3178 3177 3177
3077 3077 3077 3078 3076 3079 3090 3094 3099 3102 3109 3112 3122 3129 3135 3142 3144 3147 3149 3153 3158 3161 3163 3163 3166 3168 3169 3170 3172 3174 3174 3174 3175 3176 3177 3178 3178 3179 3178 3178 3178 3177 3176
3072 3067 3069 3075 3077 3081 3084 3092 3096 3100 3105 3111 3118 3130 3135 3139 3142 3146 3148 3152 3158 3161 3163 3164 3166 3169 3170 3170 3172 3174 3174 3174 3175 3176 3177 3177 3178 3179 3178 3178 3178 3177 3176
3071 3070 3070 3071 3077 3086 3085 3091 3096 3101 3104 3109 3119 3129 3134 3138 3142 3146 3149 3152 3157 3160 3162 3165 3166 3168 3169 3171 3172 3174 3175 3175 3176 3176 3177 3178 3179 3179 3178 3177 3177 3176 3175
3070 3071 3068 3075 3082 3086 3088 3092 3095 3100 3103 3109 3116 3127 3133 3138 3142 3145 3149 3153 3156 3158 3162 3165 3166 3167 3169 3171 3172 3174 3176 3176 3176 3176 3176 3177 3177 3177 3177 3176 3175 3174 3172
3071 3073 3076 3079 3083 3086 3089 3093 3096 3099 3106 3110 3114 3122 3131 3138 3142 3145 3150 3155 3156 3157 3161 3165 3166 3167 3169 3170 3171 3173 3175 3176 3175 3175 3175 3176 3175 3175 3175 3174 3172 3171 3170
3071 3073 3076 3080 3083 3087 3090 3091 3095 3099 3107 3111 3116 3121 3133 3138 3143 3147 3150 3156 3156 3158 3161 3163 3165 3165 3167 3168 3170 3171 3173 3174 3175 3175 3174 3174 3174 3173 3172 3172 3171 3169 3167
3070 3073 3074 3077 3080 3085 3088 3091 3092 3100 3106 3113 3117 3123 3131 3137 3143 3147 3150 3153 3156 3157 3161 3162 3164 3165 3166 3167 3168 3169 3170 3172 3173 3173 3173 3173 3172 3171 3170 3169 3168 3166 3164
3067 3070 3073 3079 3082 3084 3087 3091 3092 3098 3105 3111 3116 3119 3127 3135 3140 3144 3148 3152 3154 3156 3159 3160 3162 3164 3164 3165 3165 3167 3168 3170 3171 3171 3171 3171 3170 3169 3168 3167 3165 3163 3162
3062 3067 3072 3076 3079 3082 3086 3088 3090 3096 3103 3111 3115 3118 3126 3131 3137 3141 3144 3148 3151 3155 3157 3159 3161 3162 3162 3162 3162 3164 3165 3167 3168 3169 3168 3168 3168 3166 3165 3163 3162 3159 3158
3061 3066 3069 3073 3077 3080 3084 3086 3090 3093 3100 3106 3113 3118 3122 3127 3132 3137 3141 3144 3149 3152 3154 3155 3158 3158 3159 3160 3161 3161 3162 3163 3164 3164 3163 3163 3163 3161 3160 3158 3156 3155 3153
3064 3064 3067 3069 3072 3076 3080 3083 3087 3091 3095 3101 3109 3114 3118 3122 3127 3130 3137 3141 3145 3147 3151 3153 3154 3156 3156 3157 3157 3157 3157 3159 3159 3160 3159 3159 3158 3156 3155 3152 3151 3149 3148
3065 3065 3065 3066 3070 3072 3077 3081 3085 3088 3093 3096 3103 3108 3111 3116 3121 3126 3131 3135 3141 3144 3148 3149 3150 3151 3152 3152 3152 3153 3151 3152 3153 3154 3152 3152 3151 3149 3147 3147 3146 3144 3143
3067 3066 3065 3065 3066 3070 3074 3078 3083 3086 3089 3093 3099 3103 3108 3113 3119 3123 3128 3132 3137 3141 3143 3145 3146 3147 3147 3147 3146 3147 3147 3147 3146 3145 3146 3145 3143 3141 3141 3140 3139 3138 3136
3068 3069 3068 3067 3068 3069 3071 3075 3079 3082 3088 3092 3097 3101 3106 3110 3114 3118 3123 3129 3133 3137 3139 3140 3140 3140 3141 3141 3140 3140 3140 3140 3140 3138 3138 3138 3136 3134 3133 3133 3132 3130 3127
3069 3069 3070 3070 3070 3072 3074 3077 3080 3083 3088 3091 3094 3097 3101 3105 3111 3115 3119 3124 3129 3132 3134 3134 3134 3134 3134 3134 3135 3134 3132 3130 3133 3132 3131 3131 3128 3128 3126 3125 3124 3122 3119